Weather History for Bullhead City, AZ

Change the Weather History Date:

Saturday, April 12, 2014

  Actual Average Record
Temperature  
Mean Temperature 76 °F -  
Max Temperature 89 °F 79 °F 98 °F (1990)
Min Temperature 62 °F 57 °F 50 °F (2011)
Cooling Degree Days 10    
Growing Degree Days 26 (Base 50)    
Moisture  
Dew Point 19 °F    
Average Humidity 11    
Maximum Humidity 18    
Minimum Humidity 7    
Precipitation  
Precipitation 0.00 in - - ()
Sea Level Pressure  
Sea Level Pressure 29.66 in    
Wind  
Wind Speed 8 mph (South)    
Max Wind Speed 25 mph    
Max Gust Speed 31 mph    
Visibility 10 miles    
Events      
Averages and records for this station are not official NWS values.
T = Trace of Precipitation, MM = Missing Value Source: NWS Daily Summary

Daily Weather History Graph

Daily Weather History Graph

Search for Another Location

Airport:

Trip Planner

Search our weather history database for the weather conditions in past years. The results will help you decide how hot, cold, wet, or windy it might be!

Date:

Astronomy

Apr. 12, 2014 Rise Set
Actual Time 6:09 AM MST 7:08 PM MST
Civil Twilight 5:43 AM MST 7:34 PM MST
Nautical Twilight 5:13 AM MST 8:05 PM MST
Astronomical Twilight 4:41 AM MST 8:37 PM MST
Moon 4:55 PM MST (4/12) 4:33 AM MST (4/12)
Length of Visible Light 13h 50m
Length of Day
12h 58m
Waxing Gibbous, 93% of the Moon is Illuminated
Apr 12
Waxing Gibbous
Apr 15
Full
Apr 22
Last Quarter
Apr 28
New
May 6
First Quarter

Hourly Weather History & Observations

Time (MST) Temp. Dew Point Humidity Pressure Visibility Wind Dir Wind Speed Gust Speed Precip Events Conditions
12:15 AM 73.4 °F 14.0 °F 10% 29.70 in 10.0 mi SE 5.8 mph - N/A   Clear
12:35 AM 75.2 °F 14.0 °F 10% 29.71 in 10.0 mi SW 3.5 mph - N/A   Clear
12:55 AM 75.2 °F 14.0 °F 10% 29.70 in 10.0 mi South 10.4 mph - N/A   Clear
1:15 AM 77.0 °F 15.8 °F 10% 29.70 in 10.0 mi SSE 8.1 mph - N/A   Clear
1:35 AM 75.2 °F 15.8 °F 11% 29.70 in 10.0 mi South 4.6 mph - N/A   Clear
1:55 AM 73.4 °F 15.8 °F 11% 29.70 in 10.0 mi SE 6.9 mph - N/A   Clear
2:15 AM 75.2 °F 15.8 °F 11% 29.70 in 10.0 mi South 8.1 mph - N/A   Clear
2:35 AM 75.2 °F 14.0 °F 10% 29.69 in 10.0 mi SSW 11.5 mph - N/A   Clear
2:55 AM 75.2 °F 14.0 °F 10% 29.69 in 10.0 mi SSW 8.1 mph - N/A   Clear
3:15 AM 75.2 °F 15.8 °F 11% 29.69 in 10.0 mi SW 8.1 mph - N/A   Clear
3:35 AM 75.2 °F 17.6 °F 11% 29.69 in 10.0 mi WSW 4.6 mph - N/A   Clear
3:55 AM 73.4 °F 15.8 °F 11% 29.69 in 10.0 mi SE 6.9 mph - N/A   Clear
4:15 AM 71.6 °F 15.8 °F 12% 29.69 in 10.0 mi SSW 3.5 mph - N/A   Clear
4:35 AM 71.6 °F 15.8 °F 12% 29.69 in 10.0 mi Calm Calm - N/A   Clear
4:55 AM 68.0 °F 15.8 °F 13% 29.68 in 10.0 mi Calm Calm - N/A   Clear
5:15 AM 68.0 °F 14.0 °F 12% 29.68 in 10.0 mi ENE 3.5 mph - N/A   Clear
5:35 AM 66.2 °F 19.4 °F 17% 29.68 in 10.0 mi North 3.5 mph - N/A   Clear
5:55 AM 66.2 °F 15.8 °F 14% 29.68 in 10.0 mi Calm Calm - N/A   Clear
6:15 AM 62.6 °F 14.0 °F 15% 29.69 in 10.0 mi East 3.5 mph - N/A   Clear
6:35 AM 62.6 °F 15.8 °F 16% 29.69 in 10.0 mi Calm Calm - N/A   Clear
6:55 AM 62.6 °F 17.6 °F 18% 29.70 in 10.0 mi Calm Calm - N/A   Clear
7:15 AM 66.2 °F 17.6 °F 15% 29.71 in 10.0 mi ESE 5.8 mph - N/A   Clear
7:35 AM 68.0 °F 17.6 °F 15% 29.72 in 10.0 mi South 3.5 mph - N/A   Clear
7:55 AM 69.8 °F 17.6 °F 14% 29.72 in 10.0 mi SSW 6.9 mph - N/A   Clear
8:15 AM 68.0 °F 19.4 °F 16% 29.72 in 10.0 mi WSW 4.6 mph - N/A   Clear
8:35 AM 69.8 °F 19.4 °F 15% 29.72 in 10.0 mi Calm Calm - N/A   Clear
8:55 AM 71.6 °F 19.4 °F 14% 29.72 in 10.0 mi Calm Calm - N/A   Clear
9:15 AM 73.4 °F 21.2 °F 14% 29.73 in 10.0 mi WNW 4.6 mph - N/A   Clear
9:35 AM 75.2 °F 23.0 °F 14% 29.73 in 10.0 mi Calm Calm - N/A   Clear
9:55 AM 77.0 °F 24.8 °F 14% 29.72 in 10.0 mi SSW 4.6 mph - N/A   Clear
10:15 AM 80.6 °F 24.8 °F 13% 29.72 in 10.0 mi SSW 8.1 mph - N/A   Clear
10:35 AM 82.4 °F 24.8 °F 12% 29.71 in 10.0 mi South 6.9 mph - N/A   Clear
10:55 AM 82.4 °F 23.0 °F 11% 29.71 in 10.0 mi WSW 8.1 mph - N/A   Clear
11:15 AM 84.2 °F 23.0 °F 11% 29.71 in 10.0 mi SSW 8.1 mph - N/A   Clear
11:35 AM 84.2 °F 21.2 °F 10% 29.69 in 10.0 mi SSW 9.2 mph - N/A   Clear
11:55 AM 84.2 °F 17.6 °F 8% 29.69 in 10.0 mi South 9.2 mph - N/A   Clear
12:15 PM 84.2 °F 17.6 °F 8% 29.68 in 10.0 mi South 13.8 mph - N/A   Clear
12:35 PM 86.0 °F 19.4 °F 9% 29.67 in 10.0 mi SSW 9.2 mph - N/A   Clear
12:55 PM 87.8 °F 23.0 °F 9% 29.66 in 10.0 mi SSW 12.7 mph 20.7 mph N/A   Clear
1:15 PM 87.8 °F 19.4 °F 8% 29.65 in 10.0 mi SW 5.8 mph - N/A   Clear
1:35 PM 87.8 °F 19.4 °F 8% 29.65 in 10.0 mi WSW 8.1 mph - N/A   Clear
1:55 PM 87.8 °F 19.4 °F 8% 29.64 in 10.0 mi SE 6.9 mph - N/A   Clear
2:15 PM 89.6 °F 19.4 °F 8% 29.64 in 10.0 mi South 6.9 mph 20.7 mph N/A   Clear
2:35 PM 89.6 °F 17.6 °F 7% 29.62 in 10.0 mi South 11.5 mph 18.4 mph N/A   Clear
2:55 PM 89.6 °F 17.6 °F 7% 29.61 in 10.0 mi SW 12.7 mph 23.0 mph N/A   Clear
3:15 PM 89.6 °F 17.6 °F 7% 29.60 in 10.0 mi SSE 16.1 mph 20.7 mph N/A   Clear
3:35 PM 89.6 °F 17.6 °F 7% 29.60 in 10.0 mi South 12.7 mph 19.6 mph N/A   Clear
3:55 PM 89.6 °F 17.6 °F 7% 29.59 in 10.0 mi South 10.4 mph - N/A   Clear
4:15 PM 89.6 °F 17.6 °F 7% 29.59 in 10.0 mi SSE 11.5 mph 17.3 mph N/A   Clear
4:35 PM 89.6 °F 19.4 °F 8% 29.58 in 10.0 mi South 11.5 mph 20.7 mph N/A   Clear
4:55 PM 89.6 °F 19.4 °F 8% 29.57 in 10.0 mi SSE 12.7 mph 19.6 mph N/A   Clear
5:15 PM 89.6 °F 19.4 °F 8% 29.57 in 10.0 mi SSE 13.8 mph 21.9 mph N/A   Clear
5:35 PM 89.6 °F 19.4 °F 8% 29.57 in 10.0 mi South 12.7 mph - N/A   Clear
5:55 PM 89.6 °F 19.4 °F 8% 29.57 in 10.0 mi South 15.0 mph 20.7 mph N/A   Clear
6:15 PM 89.6 °F 21.2 °F 8% 29.56 in 10.0 mi SE 15.0 mph - N/A   Clear
6:35 PM 87.8 °F 23.0 °F 9% 29.57 in 10.0 mi South 12.7 mph - N/A   Clear
6:55 PM 87.8 °F 23.0 °F 9% 29.56 in 10.0 mi SSE 15.0 mph - N/A   Clear
7:15 PM 86.0 °F 24.8 °F 11% 29.57 in 10.0 mi SSE 18.4 mph - N/A   Clear
7:35 PM 86.0 °F 26.6 °F 12% 29.57 in 10.0 mi SSE 17.3 mph 20.7 mph N/A   Clear
7:55 PM 86.0 °F 24.8 °F 11% 29.58 in 10.0 mi SSE 19.6 mph 23.0 mph N/A   Clear
8:15 PM 84.2 °F 17.6 °F 8% 29.58 in 10.0 mi SSE 19.6 mph 29.9 mph N/A   Clear
8:35 PM 84.2 °F 17.6 °F 8% 29.59 in 10.0 mi SSE 23.0 mph 27.6 mph N/A   Clear
8:55 PM 82.4 °F 17.6 °F 9% 29.61 in 10.0 mi SSE 21.9 mph 27.6 mph N/A   Clear
9:15 PM 82.4 °F 17.6 °F 9% 29.62 in 10.0 mi SSE 23.0 mph 28.8 mph N/A   Clear
9:35 PM 82.4 °F 17.6 °F 9% 29.63 in 10.0 mi SSE 23.0 mph - N/A   Clear
9:55 PM 82.4 °F 17.6 °F 9% 29.63 in 10.0 mi SSE 20.7 mph 26.5 mph N/A   Unknown
10:15 PM 80.6 °F 17.6 °F 10% 29.63 in 10.0 mi SE 21.9 mph - N/A   Clear
10:35 PM 80.6 °F 17.6 °F 10% 29.63 in 10.0 mi SSE 25.3 mph - N/A   Clear
10:55 PM 80.6 °F 19.4 °F 10% 29.63 in 10.0 mi SSE 25.3 mph 31.1 mph N/A   Clear
11:15 PM 80.6 °F 23.0 °F 12% 29.64 in 10.0 mi SSE 18.4 mph 24.2 mph N/A   Clear
11:35 PM 80.6 °F 24.8 °F 13% 29.65 in 10.0 mi SSE 19.6 mph - N/A   Clear
11:55 PM 78.8 °F 23.0 °F 13% 29.66 in 10.0 mi SSE 15.0 mph - N/A   Clear